Theta_e
288 288 288 288 288 288 288 288 288 288 288 288 288 288 288 288 288 288 288 288 288 288 288 288 288 288 287 287 287 287 287 287 287 287 286 285 285 285 285 285 285 285 285 285 286 285 285 285 285 285 285 284 284 285 285 285 285 285 285 284 284 284 284 282 280 280 283 286 285 285 287 287 286 288 287 288 288 289 290 290 290 291 292 294 296
288 288 288 289 288 288 288 288 289 289 288 288 288 288 288 288 288 288 287 288 288 288 288 288 288 288 287 287 287 287 287 287 287 287 286 285 285 286 286 285 284 284 284 284 285 285 285 284 284 284 285 284 284 284 284 284 284 284 284 284 283 283 284 283 281 281 280 283 283 285 285 286 284 287 286 286 287 288 288 289 290 291 291 291 291
289 288 288 288 288 288 288 288 288 288 288 288 288 288 288 288 288 288 288 288 288 288 288 288 288 288 287 287 287 287 287 287 287 287 286 286 285 285 285 285 284 284 284 284 284 284 284 284 284 284 285 284 283 284 284 283 283 283 282 283 283 283 284 284 282 280 280 280 283 282 283 285 284 284 286 287 287 287 287 288 289 290 290 290 290
289 288 288 288 288 288 288 288 288 288 287 288 288 288 288 288 288 288 288 288 288 289 289 288 288 288 287 287 287 287 287 287 287 287 286 286 285 285 285 285 284 284 284 284 284 284 284 283 283 284 284 283 283 283 283 283 282 282 282 282 283 282 283 283 283 281 281 280 281 282 283 282 283 285 285 286 285 286 287 287 288 288 289 290 290
288 288 287 287 288 288 288 288 288 287 287 287 288 288 288 288 288 288 288 288 289 289 288 289 288 287 287 286 286 286 286 286 286 286 286 286 286 285 285 285 285 284 284 284 284 284 284 283 283 283 283 282 282 282 283 282 283 282 282 282 282 282 282 282 282 282 281 280 281 283 283 283 283 284 285 283 284 284 285 285 286 287 288 290 292
288 288 287 287 287 287 288 288 287 287 287 288 288 288 288 288 288 288 288 288 288 288 288 287 288 287 286 286 287 286 286 286 286 286 286 286 286 285 285 285 285 285 285 285 284 284 284 283 283 283 283 282 282 282 282 282 282 282 282 282 282 282 282 282 282 281 281 280 281 280 282 282 282 282 283 284 282 282 282 283 285 286 287 286 287
288 287 287 287 287 287 287 287 288 288 288 288 288 288 288 288 288 288 289 288 288 287 288 287 288 287 287 287 287 286 286 286 286 286 286 285 285 285 285 285 285 285 285 285 285 285 284 284 283 283 283 283 282 282 282 282 282 281 282 281 282 281 281 281 281 281 281 280 280 281 281 282 282 281 283 284 283 282 281 281 281 284 284 284 284
287 287 287 286 286 287 288 288 288 288 288 288 288 288 288 288 288 288 288 287 287 287 287 287 287 288 287 287 287 287 286 286 286 286 286 285 285 285 285 285 285 285 285 284 284 284 284 284 284 283 283 283 283 282 282 281 281 281 281 281 281 281 280 280 280 280 280 280 279 279 280 280 281 282 283 283 281 281 282 281 279 280 281 283 284
287 287 286 286 287 287 288 288 288 288 288 287 287 287 288 288 288 288 288 287 288 288 288 288 287 286 286 286 286 286 286 286 286 286 285 284 285 285 285 284 284 284 284 284 284 284 284 284 284 284 284 283 283 282 282 282 281 280 281 281 281 280 280 280 280 279 279 279 279 280 279 279 279 280 280 280 279 279 281 282 280 281 282 282 282
286 286 286 286 287 288 288 288 288 287 287 286 287 287 287 288 288 287 287 287 287 287 287 287 286 286 285 286 286 286 286 286 285 284 284 284 285 285 284 284 284 283 283 283 283 283 283 283 283 283 283 283 283 282 282 283 283 282 281 281 281 280 279 279 279 279 279 278 278 278 278 278 279 279 279 280 281 281 281 281 280 280 281 280 281
286 286 286 287 287 288 287 287 287 287 287 287 287 287 287 287 287 287 287 287 287 286 286 285 285 285 285 285 285 285 286 286 285 285 285 285 284 284 283 283 283 283 282 282 282 282 282 282 282 282 282 282 282 282 282 282 282 282 282 282 282 281 280 279 279 279 278 278 278 278 278 278 279 280 280 280 281 281 280 280 280 280 279 278 277
286 286 286 287 287 287 287 287 287 287 287 287 287 287 287 287 286 286 286 286 286 286 285 285 285 285 285 285 284 285 285 285 284 284 284 284 284 283 283 283 282 282 282 282 281 281 281 281 281 282 282 281 281 281 281 281 282 282 282 282 282 282 282 281 279 278 278 277 277 278 278 277 278 279 279 280 280 280 280 280 280 279 278 278 278
285 285 286 286 286 287 287 286 286 287 287 287 287 287 286 286 286 286 285 286 286 285 285 285 285 285 285 284 284 285 285 284 284 283 283 283 283 283 283 282 282 281 281 281 281 280 280 280 280 281 281 281 281 280 280 280 281 281 281 281 281 282 282 282 283 281 280 279 278 277 278 278 278 279 280 280 281 279 279 279 279 279 279 278 279
284 284 285 286 286 286 286 286 286 286 287 287 287 286 286 285 286 286 286 286 285 285 285 284 285 284 284 284 284 284 284 284 283 283 283 283 283 283 282 281 281 281 281 281 280 280 280 279 279 279 280 280 280 280 280 279 279 279 279 279 279 280 281 281 281 281 281 280 279 278 279 280 279 280 281 282 280 278 278 278 279 279 279 279 281
285 285 285 285 286 286 286 286 286 286 286 286 286 285 285 285 285 286 285 285 285 284 284 284 284 284 284 284 284 283 283 282 282 282 282 282 282 282 281 281 280 280 280 280 280 280 279 279 279 279 279 279 279 279 279 279 279 278 278 278 278 279 279 279 280 280 280 280 280 280 280 280 280 281 281 282 281 281 281 281 281 281 281 282 282
285 285 285 285 286 286 286 286 286 286 286 286 285 285 285 285 285 285 285 285 285 285 284 284 284 283 283 283 282 282 282 282 281 281 281 281 281 280 280 279 279 279 279 279 279 280 279 279 279 278 278 279 279 280 280 279 278 278 277 278 278 278 279 280 282 282 281 281 280 280 280 281 282 282 282 282 282 282 282 282 282 281 280 278 278
285 285 285 285 285 286 285 285 285 285 285 285 284 284 284 284 284 285 284 284 284 283 283 283 283 283 283 282 281 280 280 281 280 280 280 280 280 279 279 278 278 278 278 279 279 279 279 279 278 278 278 278 279 280 281 280 278 277 276 276 277 277 277 279 281 282 282 283 283 283 284 284 284 285 285 285 283 283 281 279 278 279 278 276 277
285 285 285 285 286 286 286 285 285 285 284 284 284 284 284 285 285 285 283 283 283 283 283 283 283 282 281 280 280 279 279 279 279 280 280 279 279 278 278 277 277 277 277 278 278 278 278 279 278 278 277 277 279 280 280 279 277 276 276 276 276 276 276 278 279 279 281 282 282 282 282 283 283 284 284 284 284 283 280 276 278 279 276 277 275
285 285 285 286 286 286 286 285 285 285 284 284 284 284 284 284 284 283 283 282 282 282 282 282 281 280 280 279 279 278 278 278 279 279 279 279 278 278 277 277 276 276 276 276 277 277 277 278 278 277 277 278 279 280 280 279 277 276 276 275 274 274 275 277 277 277 277 277 278 278 279 279 279 279 279 282 282 282 280 279 279 278 276 276 277
287 287 287 287 287 286 286 285 285 285 284 285 285 285 285 284 283 282 282 282 281 281 280 280 278 278 279 278 278 278 277 278 278 278 278 278 278 277 277 276 275 275 275 275 275 275 276 276 276 278 279 279 279 279 279 280 277 276 276 274 274 273 276 276 276 276 276 276 277 277 277 278 278 278 279 279 279 280 280 279 279 278 277 277 277
287 287 287 286 286 286 286 285 285 285 285 285 285 284 283 282 281 281 280 280 279 278 278 278 277 277 277 277 277 277 277 276 276 277 277 277 277 277 276 275 275 275 274 274 274 274 274 275 275 277 278 278 279 279 279 279 279 276 276 275 275 276 278 276 276 278 277 277 277 277 277 278 278 278 278 278 279 279 279 280 280 279 279 277 277
287 286 286 285 285 285 285 285 285 284 284 284 283 282 281 281 280 279 279 278 277 276 276 276 276 276 276 277 276 276 276 276 275 276 276 276 277 277 275 275 275 274 273 273 273 273 274 274 274 276 277 278 278 278 279 279 279 277 276 279 280 280 277 277 276 276 276 275 275 275 275 275 276 276 277 277 278 279 279 279 280 280 280 280 278
286 285 285 284 284 284 284 284 284 283 283 282 281 280 279 279 278 278 277 276 276 275 275 275 275 275 275 275 276 275 275 275 275 274 275 276 276 276 276 276 276 275 273 272 272 273 274 274 274 276 277 277 278 278 279 279 278 277 279 279 279 279 278 275 275 274 274 273 273 272 273 274 274 274 275 275 276 277 278 279 279 279 279 280 281
285 284 284 284 284 284 284 283 283 282 281 281 280 279 278 277 277 277 276 275 275 274 275 275 274 273 273 273 274 274 274 274 274 274 274 274 275 275 276 276 276 274 274 273 273 273 273 273 274 276 277 278 278 278 279 278 277 278 278 278 277 276 274 273 272 272 272 272 271 271 271 272 273 273 274 275 275 276 277 277 278 278 278 279 279
283 283 283 283 283 283 282 282 281 280 280 279 279 278 277 276 275 275 274 274 274 274 274 274 273 272 272 272 272 273 273 273 273 273 273 273 274 275 275 275 276 276 273 273 274 273 275 276 277 277 277 277 277 277 276 275 276 276 276 276 274 272 271 270 270 270 269 269 269 269 270 271 272 272 273 273 274 275 275 275 277 277 277 278 278
282 282 283 282 282 280 279 278 278 278 278 278 278 277 276 275 275 274 274 273 273 273 272 272 271 271 270 271 271 271 272 271 271 272 272 272 272 273 274 275 275 275 274 274 275 276 276 276 276 276 275 274 273 272 272 272 274 274 274 273 271 270 270 269 269 268 268 268 268 268 269 270 271 272 273 273 272 272 273 273 273 274 275 275 275
281 282 281 281 279 278 278 277 276 276 276 276 275 274 274 274 273 272 272 272 271 271 270 269 269 269 269 269 270 270 269 270 270 271 272 272 272 272 272 273 274 274 273 272 272 272 272 272 273 274 274 274 274 273 272 272 271 271 271 270 270 269 269 268 268 267 267 267 267 268 268 269 270 270 270 270 270 271 272 272 272 272 273 274 273
281 281 280 279 278 277 278 273 274 275 274 274 273 273 272 272 272 271 271 271 271 270 270 269 269 269 269 269 268 268 268 269 270 271 271 271 272 272 273 272 272 271 271 271 271 272 271 272 272 271 271 270 270 270 270 270 269 268 268 268 268 268 267 268 268 267 267 267 267 267 267 268 268 268 269 269 269 270 271 271 271 271 272 272 271
279 279 278 277 277 276 276 274 275 274 273 272 272 272 272 271 271 271 272 271 270 269 269 269 269 269 269 268 268 268 269 269 270 273 272 274 273 272 271 271 271 271 272 274 271 271 271 270 269 269 269 268 268 267 267 266 266 266 266 265 265 265 264 264 264 264 265 265 264 264 265 265 266 266 267 267 268 269 270 270 271 271 271 271 270
276 276 276 276 275 274 274 273 272 272 272 272 270 269 268 269 270 270 269 270 270 271 271 269 270 270 270 271 271 269 269 270 273 275 274 275 275 274 274 274 274 273 273 274 272 269 269 268 268 267 266 266 265 264 264 263 263 263 263 263 263 262 262 263 263 263 263 263 263 263 263 263 263 263 264 264 265 267 269 270 269 269 268 268 268
276 275 274 275 273 274 273 272 271 271 270 270 269 268 268 268 270 271 271 270 271 271 272 273 273 273 272 270 271 274 274 274 274 274 274 274 274 274 273 273 273 273 274 271 269 268 267 266 265 265 264 264 263 262 262 261 261 261 260 261 261 261 261 261 262 262 262 262 262 262 262 262 262 263 263 263 264 264 265 266 266 268 269 269 268
276 275 274 273 271 272 272 271 270 270 269 268 268 267 267 266 267 269 269 269 270 270 271 272 272 272 272 272 270 270 271 272 273 272 272 272 271 272 272 272 273 273 273 273 268 266 266 264 263 263 263 262 261 261 261 260 260 260 260 259 260 260 260 260 261 261 261 261 261 261 261 261 261 262 262 263 264 264 265 266 266 266 267 268 268
275 274 272 271 271 270 270 270 269 269 267 267 266 266 266 266 266 266 267 268 268 268 269 270 270 270 270 270 271 270 271 271 272 272 270 270 271 270 271 272 273 273 272 268 265 264 264 263 262 261 261 260 260 260 260 260 259 259 259 259 259 259 260 261 261 261 260 260 260 260 261 261 261 261 262 262 262 261 263 264 266 266 266 266 266
272 272 271 270 270 270 270 269 268 268 268 267 266 265 265 264 264 263 263 264 265 266 268 268 268 268 268 269 269 269 270 270 270 269 269 268 269 271 271 269 271 271 269 265 263 262 262 261 261 260 260 260 260 260 259 259 259 259 259 259 259 260 260 261 260 260 260 260 260 260 261 261 261 261 261 261 262 262 262 262 262 263 264 266 267
270 267 265 267 271 270 269 269 268 267 266 266 265 264 264 263 263 262 262 262 262 262 263 264 266 266 265 265 266 268 268 269 269 269 268 269 270 270 270 265 263 263 263 263 262 261 260 260 259 260 260 259 259 259 259 259 259 259 259 259 259 259 259 259 259 259 259 259 259 260 260 260 260 261 261 260 260 260 261 262 263 263 263 263 265
269 269 268 267 268 269 268 267 267 266 265 265 264 263 262 262 262 262 262 261 261 261 261 263 263 263 263 263 264 265 265 266 267 267 268 268 268 268 263 262 262 261 261 261 260 260 260 260 259 259 259 259 259 259 259 259 259 259 259 259 258 259 259 259 259 259 259 259 259 259 260 259 260 260 260 260 260 261 261 262 262 263 263 264 264
269 269 268 267 267 267 266 265 265 264 263 262 263 262 262 262 261 261 261 261 260 261 261 261 261 261 262 262 262 263 263 264 265 266 266 266 267 264 262 261 260 260 259 259 260 259 259 259 260 259 259 259 259 259 259 259 259 259 259 259 259 258 258 259 259 259 259 258 259 259 259 259 259 260 260 259 260 260 261 261 262 263 264 264 265
268 268 267 265 264 264 263 263 262 260 261 262 262 262 261 261 260 260 260 260 260 260 259 260 260 259 259 260 262 261 261 261 261 262 262 263 262 261 261 260 260 259 259 259 259 259 259 259 259 259 259 259 259 259 259 258 259 259 258 258 259 259 259 259 259 259 259 259 258 259 259 259 259 260 260 259 259 259 260 261 261 261 262 264 265
265 262 261 261 263 263 263 262 261 261 261 261 261 260 259 260 260 260 260 260 259 259 259 259 259 259 259 261 260 261 260 259 259 259 259 260 261 261 260 260 259 259 259 259 259 259 259 259 259 259 259 259 258 258 258 258 258 258 259 258 258 259 258 258 258 259 258 258 259 259 259 259 259 260 260 260 259 260 260 261 261 261 261 262 263
264 263 262 261 262 262 261 261 261 261 261 260 260 260 259 259 259 259 259 259 258 258 259 258 258 259 260 260 259 259 258 258 258 258 259 259 259 259 259 259 259 259 258 258 259 259 258 258 259 259 258 258 258 258 259 258 258 259 259 258 258 258 258 259 259 258 258 259 259 259 259 259 259 260 260 260 260 260 259 260 260 260 260 260 261
264 263 260 262 261 262 261 260 260 260 260 260 260 259 259 258 258 258 258 258 258 258 258 258 258 259 259 259 260 259 258 257 258 258 258 258 258 258 258 259 259 258 258 258 258 258 258 258 258 258 258 258 259 259 259 259 259 259 259 259 259 258 259 259 259 259 259 259 259 259 259 259 259 259 259 259 260 260 260 260 260 261 261 262 262
262 261 261 261 260 260 260 260 260 258 258 258 258 258 258 258 258 258 257 257 257 257 257 258 258 259 259 259 259 259 258 258 258 258 258 258 258 258 258 258 259 259 258 258 258 258 258 258 258 258 258 258 258 259 259 259 259 259 259 259 259 259 258 259 259 259 259 259 259 259 259 259 260 260 260 260 260 260 260 260 260 261 261 261 261
260 261 261 260 260 259 259 260 259 258 258 258 258 257 257 257 257 257 257 257 257 257 257 257 257 258 258 258 258 258 258 258 257 257 257 257 258 258 258 258 258 259 259 259 259 259 258 258 258 258 258 259 259 259 259 259 259 259 259 259 259 259 259 259 259 259 259 259 259 260 259 259 260 260 260 260 260 260 260 260 260 260 261 261 262
259 260 259 259 259 259 258 258 258 258 258 257 257 257 257 257 257 257 257 256 256 256 256 256 257 257 257 257 257 257 257 257 257 257 257 257 257 257 257 258 258 258 258 258 259 259 258 258 258 258 259 259 259 259 260 260 260 260 260 259 259 259 259 260 260 260 260 260 260 260 260 260 260 260 260 260 260 260 260 260 260 260 261 261 262
259 259 259 259 258 258 258 257 257 257 256 256 256 256 256 256 256 256 256 256 256 256 256 256 256 256 256 256 257 256 256 256 256 256 256 256 256 257 257 258 258 258 258 258 258 258 258 258 258 258 258 259 259 260 260 261 261 261 261 261 260 260 260 260 261 261 261 261 260 260 260 260 260 260 260 260 260 260 260 260 261 262 261 262 262
259 259 258 258 258 257 257 257 256 256 256 256 256 256 256 256 256 255 255 255 255 255 255 256 256 256 256 256 256 256 256 256 256 256 256 256 257 257 257 257 257 257 257 258 258 258 258 258 258 258 258 259 259 260 260 261 261 262 262 262 262 262 262 262 262 262 262 261 261 261 261 260 260 260 261 260 260 260 260 261 261 261 261 261 261
257 258 258 257 257 257 256 256 256 256 255 255 255 255 255 256 256 255 255 255 255 255 255 255 255 255 255 255 255 255 255 255 255 256 256 255 256 256 256 257 257 257 257 257 258 258 258 258 258 259 259 259 259 260 260 261 261 262 262 262 263 263 263 263 263 263 263 263 262 262 261 261 261 261 261 261 261 261 261 261 261 261 261 262 262
257 257 257 257 256 256 256 255 255 254 255 255 255 255 255 255 255 255 255 255 254 254 254 255 255 255 255 255 255 255 255 255 255 255 256 256 256 256 256 256 256 256 257 257 257 258 258 258 258 259 259 259 259 260 260 261 261 262 262 263 263 263 264 264 264 264 263 263 263 262 261 261 261 261 261 261 260 261 260 260 261 261 261 262 263
257 257 256 256 256 256 256 255 255 255 255 255 254 254 254 254 254 254 254 254 254 254 254 254 254 254 254 255 255 255 255 255 254 255 255 255 255 256 256 256 256 256 256 256 257 257 258 258 258 259 259 259 259 260 260 261 261 262 262 263 263 264 264 265 265 265 265 264 263 263 262 262 261 261 261 261 261 261 261 261 261 261 261 262 262
256 256 256 256 255 255 255 255 255 255 254 254 254 253 253 253 253 253 253 253 254 254 254 254 254 254 254 254 254 254 254 254 254 254 254 255 255 255 256 256 255 256 256 256 257 257 257 258 258 258 259 259 260 260 261 261 261 262 263 263 264 265 265 265 265 266 265 265 265 264 263 262 262 262 262 262 261 261 261 261 261 261 261 261 261
256 255 255 255 255 255 255 254 254 254 253 253 253 253 253 253 253 253 253 253 252 253 253 253 253 253 253 254 254 254 253 253 254 254 254 254 255 255 255 255 255 255 256 256 256 257 257 257 258 258 259 259 260 260 261 261 262 262 263 264 265 265 265 265 265 265 265 265 265 265 264 263 262 262 262 262 262 261 261 261 261 261 261 261 262
Wind_Speed
6 5 4 5 5 6 5 5 5 4 4 3 3 3 3 3 2 1 1 1 1 1 0 1 1 2 3 4 5 5 5 5 5 4 5 5 5 5 5 6 6 6 6 7 7 7 8 9 9 10 10 10 10 10 10 11 11 10 10 10 10 10 11 13 16 20 15 8 13 14 14 16 17 13 18 17 15 15 16 15 15 14 13 12 14
7 7 6 5 6 5 6 5 5 4 5 5 5 5 4 4 4 4 4 3 3 3 2 1 1 2 3 4 5 5 5 6 5 5 5 6 6 4 5 6 7 7 6 7 7 6 7 9 10 10 10 10 11 11 11 11 11 11 10 10 11 11 10 12 15 15 22 14 12 13 13 12 16 14 15 20 19 17 19 17 14 13 13 14 15
7 7 7 7 8 7 6 5 5 6 6 5 6 6 6 5 5 5 5 4 4 4 3 3 3 3 4 4 5 5 6 6 5 5 5 6 6 6 6 6 7 7 7 8 8 8 9 9 10 10 8 10 11 10 11 11 10 11 13 11 12 12 12 12 14 17 20 19 13 14 13 12 13 16 16 16 17 17 19 17 15 14 12 14 15
8 7 7 8 8 7 7 7 6 7 7 6 7 7 6 6 5 6 5 4 4 4 4 4 3 4 5 6 6 6 7 6 6 6 6 6 6 7 7 7 7 7 8 8 8 8 9 10 10 11 11 11 11 11 10 10 11 11 12 12 12 13 13 12 13 15 17 20 17 13 13 14 12 14 13 14 16 17 15 16 17 17 17 15 15
8 8 9 10 9 8 9 8 8 8 9 8 8 8 7 6 6 6 5 5 5 3 4 3 4 5 6 7 7 7 7 8 8 7 7 7 7 7 8 7 7 8 8 8 8 9 9 10 11 11 11 12 12 11 11 14 12 12 12 12 13 13 12 13 14 14 17 19 19 15 14 15 13 13 12 13 15 15 16 17 17 17 17 16 12
8 9 9 10 9 10 9 9 9 10 10 9 9 8 7 7 6 5 5 5 4 4 5 5 5 7 7 7 7 8 8 8 8 8 8 8 7 8 8 8 8 8 8 9 9 9 9 10 11 11 11 11 12 12 12 14 13 13 14 14 14 14 15 15 14 15 17 18 18 20 15 14 15 12 12 12 13 15 16 15 16 14 15 16 15
9 9 10 10 10 10 10 10 10 10 9 9 8 7 7 7 6 6 5 5 5 6 6 6 6 6 7 7 7 8 8 8 8 8 8 8 9 9 9 9 9 8 8 9 10 10 11 11 11 11 11 11 12 12 13 14 13 15 15 15 15 15 15 15 15 16 16 18 18 17 17 15 13 16 14 13 14 12 13 16 16 13 13 15 18
10 10 10 10 11 11 11 11 10 10 9 8 8 8 7 7 7 6 5 6 6 7 7 7 7 6 6 6 7 7 7 8 8 8 8 8 9 9 9 10 10 10 11 11 11 11 11 12 12 12 12 11 11 13 13 14 14 15 14 14 15 16 16 15 15 15 16 16 17 18 16 16 15 13 13 14 13 13 10 10 16 17 16 15 15
11 10 10 11 11 11 10 9 8 8 8 8 8 8 8 7 7 6 6 6 6 7 7 7 6 7 7 7 7 6 6 7 6 6 7 8 9 9 10 11 11 12 12 12 12 12 12 12 12 12 12 14 16 17 17 17 15 16 15 15 15 16 16 15 15 15 16 16 17 16 17 17 16 15 14 13 13 15 15 14 15 15 14 16 16
12 11 12 12 11 10 10 8 8 9 8 9 9 9 8 8 7 7 7 7 7 6 6 6 7 8 7 7 7 6 6 6 7 9 10 8 9 9 10 11 11 12 12 13 12 12 12 12 12 15 14 15 16 19 21 21 21 18 17 16 16 16 16 16 16 15 16 17 17 17 18 18 17 15 16 16 15 14 16 15 16 16 17 15 15
11 11 13 12 11 10 9 9 9 10 10 9 9 9 9 7 7 8 8 8 8 7 6 7 8 7 8 8 8 7 6 6 8 9 10 12 10 10 11 11 12 12 12 13 13 13 12 13 13 14 15 15 15 18 19 21 22 24 26 26 22 19 17 18 18 17 16 17 17 17 18 20 20 17 16 16 15 15 15 15 15 15 15 16 18
11 12 12 11 10 11 10 10 10 11 10 10 10 9 8 8 8 8 8 9 8 7 8 9 8 8 7 8 8 8 7 8 8 9 11 13 13 11 11 11 11 12 12 13 12 12 14 13 13 11 12 14 15 16 18 21 23 24 25 25 25 26 25 21 19 19 18 18 19 19 19 19 20 18 17 16 16 16 15 15 16 16 18 17 16
11 12 12 11 10 10 10 11 11 11 11 10 9 8 8 8 9 9 10 10 7 8 9 8 8 8 8 9 9 8 7 6 7 9 11 13 15 14 11 12 12 13 13 14 14 14 13 14 13 12 11 17 15 15 16 17 20 24 24 26 27 28 28 30 29 24 21 22 22 22 20 20 20 18 17 17 17 19 17 17 16 17 17 18 17
11 12 11 10 10 10 11 11 12 12 11 9 8 8 9 9 10 9 8 7 8 9 9 10 9 9 8 8 7 6 7 4 6 10 12 14 15 15 12 13 13 14 14 14 14 15 15 14 14 14 14 15 15 16 16 17 17 17 17 17 17 20 24 27 28 30 27 22 23 24 23 20 21 20 21 19 20 20 18 20 18 19 18 19 20
10 10 9 9 10 10 11 11 12 12 11 9 9 9 10 9 9 9 8 8 8 8 8 9 8 8 7 6 6 5 5 6 9 12 13 15 16 16 12 12 13 13 13 14 15 15 15 14 15 16 16 16 14 16 16 17 17 17 19 20 21 19 20 20 19 18 18 19 21 22 24 23 22 23 22 20 21 21 19 20 21 22 22 22 21
10 8 9 10 11 12 11 11 11 10 10 9 9 10 10 10 10 8 7 7 7 7 7 7 7 6 6 6 5 6 6 8 10 11 13 14 17 12 12 12 13 13 14 14 15 14 14 15 15 16 17 17 19 23 21 19 20 21 22 21 20 20 19 19 24 25 23 21 21 22 21 24 28 26 25 25 23 22 22 21 20 20 21 21 20
10 10 11 12 11 11 11 11 10 10 9 9 9 10 10 10 9 7 7 7 7 7 7 6 6 5 5 4 5 6 7 8 10 11 12 15 14 11 11 12 12 14 14 14 14 14 14 15 15 16 18 18 21 25 26 26 20 21 21 21 21 19 19 18 22 27 28 31 32 33 34 35 35 37 37 38 29 25 22 20 19 17 20 20 19
10 10 11 11 11 11 10 9 9 9 8 10 10 9 8 7 7 6 6 6 7 7 5 5 4 4 4 5 5 6 7 8 10 12 13 14 14 12 12 12 13 13 14 14 13 13 15 20 20 18 18 19 23 27 28 24 20 20 20 21 21 20 19 17 14 16 25 28 29 30 31 31 33 35 36 35 34 29 21 22 20 18 20 18 21
10 11 11 10 9 8 7 8 9 9 9 10 9 9 9 7 5 4 5 5 5 3 4 3 3 3 4 5 5 7 9 9 11 13 14 14 12 11 11 12 13 13 13 14 14 13 14 15 20 19 19 22 28 28 28 24 19 18 19 19 20 21 19 18 18 19 19 19 19 19 20 24 23 21 22 30 31 30 22 22 20 18 19 19 19
11 10 9 8 7 7 6 7 8 9 10 10 8 8 6 4 5 5 4 3 3 3 3 3 4 4 3 5 6 7 8 8 8 12 13 15 16 12 11 12 13 14 14 13 14 14 15 16 17 22 24 25 26 28 27 28 22 20 18 18 19 22 19 19 18 19 21 19 21 22 22 23 20 23 20 21 23 22 22 21 20 19 20 19 19
8 8 7 7 7 7 7 8 9 9 9 8 7 4 4 4 4 4 3 3 2 2 3 3 4 5 5 6 7 7 7 8 9 12 14 16 17 15 11 13 13 13 14 15 15 15 15 15 15 20 25 26 27 28 29 30 28 22 19 19 20 22 26 20 20 27 22 23 22 22 22 20 23 20 22 20 21 20 20 20 20 19 19 19 18
7 7 7 8 8 8 8 8 8 7 5 5 4 3 3 3 3 3 2 2 3 3 3 3 5 5 6 6 7 8 8 10 10 11 14 16 17 19 13 13 14 14 16 15 15 15 15 15 15 20 26 27 28 30 31 30 31 23 23 31 35 35 27 21 20 16 19 20 19 18 17 19 17 19 19 20 20 20 20 19 19 19 18 18 21
7 7 8 8 8 8 8 6 5 4 3 3 4 4 4 4 4 3 3 3 3 4 4 5 5 6 6 6 6 7 8 8 11 11 14 16 18 18 20 18 21 16 15 16 16 16 15 17 18 25 28 29 30 31 31 34 30 24 32 32 33 35 30 18 17 19 18 19 20 20 18 19 19 19 18 19 20 20 21 21 23 24 21 20 19
7 7 5 7 7 5 3 2 3 2 3 4 4 5 5 4 4 3 3 3 3 4 4 4 5 5 7 7 6 6 7 7 9 13 14 17 18 19 20 21 21 15 14 15 15 16 17 18 19 27 30 31 33 32 32 31 25 32 32 32 32 30 20 17 17 17 18 16 21 18 18 20 19 18 19 17 17 18 18 19 20 22 22 22 24
4 5 5 4 4 2 1 1 3 3 4 5 5 5 5 4 4 3 3 3 3 4 4 4 5 5 6 7 7 6 6 7 8 11 15 17 19 20 20 20 20 21 16 15 16 15 20 28 31 32 31 32 34 32 27 27 30 28 30 31 31 19 19 17 18 17 18 20 21 22 21 20 21 21 22 23 23 21 19 17 19 20 21 20 18
6 6 4 3 2 3 4 3 4 4 5 4 3 3 4 4 3 2 2 3 3 3 4 4 5 6 6 7 7 7 7 7 9 9 10 12 12 15 18 20 20 21 19 17 22 27 28 29 32 31 28 25 21 18 18 20 28 33 35 29 15 14 15 15 16 16 17 17 19 19 20 19 18 18 19 19 18 18 17 17 17 18 17 19 19
7 6 5 3 3 4 6 5 5 4 4 3 3 3 3 2 2 2 2 2 3 3 4 4 5 5 6 6 7 7 7 7 8 8 8 9 10 11 11 12 16 18 15 14 15 15 19 21 20 26 25 32 31 28 28 28 20 15 12 15 15 16 14 13 15 17 17 18 18 19 19 20 20 20 18 18 19 19 18 19 19 20 18 16 19
6 5 5 4 4 5 5 7 6 4 4 3 3 3 2 2 2 3 3 3 3 4 4 5 5 6 6 5 7 9 10 9 8 8 8 9 9 11 12 12 12 11 13 13 14 16 18 21 23 17 17 15 16 15 12 13 16 16 16 15 13 15 20 24 24 19 19 18 18 19 19 18 17 17 17 16 16 15 15 17 18 18 16 14 16
5 4 4 4 4 4 4 5 4 4 4 3 2 2 2 2 3 3 4 3 3 4 5 6 5 6 6 7 8 9 10 10 9 10 13 18 17 15 14 13 13 13 16 24 19 18 17 15 17 15 14 17 14 16 14 13 17 15 17 15 14 16 15 15 15 16 16 18 18 18 19 18 18 18 18 18 18 17 17 17 17 16 19 17 21
5 4 4 4 4 4 4 4 3 3 3 3 2 1 2 4 4 3 3 6 9 11 10 8 7 7 8 9 9 10 10 11 19 24 24 23 23 24 24 25 25 21 24 29 23 17 15 17 14 15 16 15 16 15 16 13 15 15 15 16 15 13 14 14 14 15 15 16 16 17 17 16 17 17 17 19 19 17 17 20 18 18 19 19 18
4 3 4 3 5 4 4 3 3 3 2 2 1 1 2 3 8 10 10 9 10 11 13 15 16 16 12 12 12 18 19 21 22 23 24 23 24 25 26 26 27 26 27 20 15 14 14 13 16 15 15 15 15 16 17 16 15 15 15 14 13 14 15 14 14 14 15 15 16 16 16 16 18 17 17 18 18 19 17 18 19 19 18 18 18
4 4 4 3 5 4 3 3 3 2 2 2 1 1 2 3 3 7 10 8 9 11 12 14 15 15 16 14 13 12 16 19 21 22 23 25 24 25 26 28 27 28 26 26 17 13 13 14 15 14 14 15 15 15 15 15 15 15 15 15 15 13 15 15 15 15 15 16 16 17 16 17 17 18 18 18 18 17 17 17 16 18 17 16 16
4 4 4 5 4 5 3 3 3 3 3 3 2 2 2 2 4 3 3 6 10 12 13 13 13 13 13 14 16 16 18 20 24 23 23 24 25 25 26 28 28 27 27 17 12 14 14 13 14 14 13 14 15 15 15 15 15 15 14 15 16 16 14 16 17 17 17 17 17 17 18 17 17 18 18 18 17 18 18 17 16 17 17 17 19
6 5 5 5 5 4 4 3 3 3 3 3 2 3 2 3 3 3 5 5 4 7 10 12 10 10 12 15 16 18 19 21 22 22 22 23 24 25 25 22 27 27 20 14 13 13 14 14 15 15 14 14 14 15 15 15 15 15 16 16 16 16 17 16 16 16 16 16 16 17 17 17 17 17 17 16 16 17 17 17 18 18 17 16 17
4 5 8 7 4 4 4 4 3 3 3 3 3 3 3 2 3 3 4 5 6 6 4 4 7 10 9 10 14 17 18 20 21 22 23 23 23 24 25 17 14 12 9 9 11 13 13 14 14 15 14 15 15 15 16 16 15 15 15 16 16 16 16 16 16 16 16 16 17 17 17 18 17 17 17 18 17 17 17 17 16 17 17 18 18
5 5 4 5 4 4 3 3 3 3 3 2 2 2 2 2 3 3 3 5 6 7 7 5 5 6 11 14 17 18 17 17 19 20 21 23 23 22 13 12 13 12 11 11 11 13 13 14 14 15 14 14 15 15 16 16 16 16 16 16 17 17 17 16 17 16 15 17 18 17 18 17 17 17 17 18 20 19 18 17 17 18 20 19 17
5 4 4 4 3 3 3 3 2 2 2 2 2 2 2 3 3 3 4 5 6 6 7 7 6 6 6 7 9 13 17 18 20 21 21 21 21 13 11 12 12 14 13 12 12 12 13 14 14 15 15 15 15 15 16 16 16 17 17 17 17 17 17 17 16 13 17 18 17 18 18 17 17 17 17 18 18 18 18 18 18 18 18 20 21
3 3 3 4 3 3 3 3 2 3 2 2 2 2 2 3 3 4 4 6 6 6 7 7 6 7 7 7 5 7 11 16 18 15 11 10 8 8 9 10 12 13 14 13 13 13 14 14 13 14 15 15 16 16 16 17 16 16 18 17 16 17 23 19 20 21 19 17 19 17 17 17 17 16 17 18 18 17 18 17 16 17 17 18 16
3 4 6 5 3 3 3 2 3 3 2 2 2 2 2 3 4 4 5 5 6 6 6 6 6 6 7 6 7 8 10 10 9 10 9 7 9 9 9 10 11 12 13 13 14 13 13 14 14 14 15 15 16 16 16 16 17 17 16 17 19 17 17 17 17 15 17 16 16 17 17 17 16 16 16 17 18 17 17 17 17 16 16 16 15
4 4 4 6 3 2 2 2 2 2 2 2 2 2 3 3 4 5 5 5 6 6 6 6 7 7 6 6 7 8 11 11 10 11 12 12 11 9 9 10 11 12 13 14 13 13 14 14 14 14 15 16 16 16 16 17 17 16 18 17 18 18 17 16 15 16 17 16 16 17 16 17 17 16 16 17 17 17 18 18 19 17 16 17 19
2 3 5 4 3 3 3 2 2 2 2 2 2 2 4 3 4 4 5 6 6 6 7 7 8 8 7 8 12 13 11 12 12 11 11 12 13 12 11 11 11 13 13 13 14 14 14 14 14 15 15 15 16 16 16 16 17 18 18 17 18 19 16 17 18 17 15 18 18 16 17 18 16 17 17 17 18 18 17 18 17 16 17 17 17
4 4 4 4 3 3 2 2 2 2 2 2 3 4 3 3 4 4 5 5 5 6 7 8 8 8 9 14 14 16 12 11 11 12 12 12 13 14 13 13 13 13 13 13 14 14 14 15 15 15 15 16 16 16 16 17 17 17 17 18 16 17 18 16 17 18 18 17 15 17 18 17 18 17 18 18 17 16 17 16 16 16 15 16 16
4 3 3 3 3 3 2 2 1 1 2 3 4 4 4 5 5 4 5 5 6 6 7 8 8 7 8 10 11 14 10 10 10 12 12 12 13 13 14 13 13 13 13 14 14 14 15 15 16 15 15 16 16 17 18 17 17 17 16 18 19 17 18 17 16 17 17 17 18 16 20 17 18 17 16 16 16 17 17 17 17 16 16 16 16
3 3 2 3 2 1 1 1 1 2 3 3 4 4 4 4 5 5 5 6 6 6 7 8 8 8 8 8 7 7 7 9 11 12 13 13 13 13 14 14 14 14 14 14 15 14 14 15 15 16 17 15 17 16 17 18 15 16 20 19 18 19 18 16 16 16 15 16 17 16 15 17 16 17 17 16 16 17 17 17 17 17 16 16 16
3 3 3 2 2 1 1 1 2 2 2 3 4 4 3 4 5 5 5 6 6 6 7 8 8 8 8 8 7 8 8 8 9 12 12 13 13 14 14 14 14 14 14 15 14 14 14 15 16 17 18 18 17 18 16 14 17 18 15 16 20 20 18 19 17 18 18 19 16 15 15 14 17 14 17 16 16 17 17 17 17 17 17 16 16
3 2 2 2 1 1 1 2 2 3 3 4 4 4 4 4 4 5 5 6 6 7 7 8 8 8 8 8 8 8 8 8 9 12 13 13 14 14 14 14 14 15 15 15 15 15 15 16 16 16 17 17 17 17 18 19 18 16 19 20 20 21 21 18 19 18 17 14 17 13 17 15 17 16 18 16 15 16 16 17 17 16 16 16 16
2 2 2 2 2 2 2 2 2 3 3 4 4 4 4 4 4 5 5 7 7 7 8 8 8 8 8 8 8 9 9 9 10 13 12 11 13 14 14 13 14 15 15 15 15 14 16 16 15 17 17 18 17 18 20 16 14 17 21 18 18 17 17 18 18 18 16 17 16 16 15 14 15 15 17 18 16 16 17 17 16 17 17 16 16
2 2 2 2 2 2 2 2 4 4 4 4 4 4 4 4 5 5 5 5 7 7 7 8 8 8 8 8 8 8 9 9 10 12 14 14 14 12 13 15 16 14 15 15 15 15 15 16 16 17 18 18 19 19 18 19 19 18 17 16 16 18 20 26 17 18 18 17 16 17 15 15 14 16 14 16 16 15 16 16 16 15 16 16 16
2 2 2 2 2 3 2 3 3 4 4 3 4 5 4 4 5 5 5 6 7 7 7 7 7 7 8 8 8 8 9 9 10 10 13 13 13 14 14 15 15 15 15 14 15 15 15 16 17 17 17 18 18 17 18 20 21 18 17 18 21 33 35 30 24 19 22 17 14 16 15 15 15 15 15 16 16 16 16 16 15 15 15 15 16
2 2 2 2 2 3 2 2 3 3 3 4 4 4 4 4 5 5 6 7 7 7 7 7 7 7 8 8 8 8 8 9 11 12 13 14 14 13 13 13 15 14 14 15 15 15 16 16 17 17 18 18 19 18 19 18 18 18 18 20 31 33 32 37 36 35 25 15 12 11 13 14 15 15 15 15 16 17 17 16 16 16 15 15 15
2 2 2 2 2 2 2 3 4 3 4 4 3 4 4 5 5 5 6 6 7 7 6 7 7 7 8 8 8 9 9 9 10 12 13 13 13 13 14 14 14 15 15 15 16 16 16 16 16 17 18 19 19 19 17 17 19 20 28 34 35 38 39 36 26 25 28 24 18 16 13 13 14 14 15 14 14 15 16 17 16 16 15 15 15
Wind_Direction
226 230 224 219 213 210 196 193 195 197 195 204 214 197 197 207 206 214 225 210 224 237 230 359 5 1 355 352 350 346 349 344 350 347 346 344 340 334 330 329 326 323 324 321 321 321 319 317 317 317 318 316 316 315 313 314 313 309 309 308 305 306 305 300 297 297 296 289 294 302 310 314 308 314 312 314 315 315 313 307 306 304 305 306 308
224 224 223 234 231 227 218 210 207 205 211 207 217 215 211 214 213 215 225 221 218 231 237 237 276 312 322 323 325 327 325 328 328 330 328 326 323 319 313 315 315 315 314 314 316 315 312 310 312 315 316 311 310 310 312 313 313 313 311 311 306 304 304 302 299 296 299 305 300 301 301 306 301 313 314 313 316 317 313 311 306 308 313 312 307
225 224 224 226 231 232 233 229 219 222 223 224 220 220 218 218 214 219 225 224 217 228 232 234 251 271 290 300 307 309 310 311 311 307 307 308 309 308 305 305 306 307 310 310 312 313 311 310 310 313 313 310 309 309 311 311 312 312 309 308 305 303 302 299 299 297 298 298 303 303 305 305 302 308 311 308 308 311 311 312 312 310 307 301 297
223 223 228 231 232 233 234 237 234 232 233 232 233 228 222 218 213 220 225 225 226 222 225 235 255 287 297 302 303 303 303 300 297 295 291 291 291 294 295 294 294 298 302 304 307 308 308 309 310 313 313 310 310 311 310 312 312 308 307 305 303 302 300 297 292 291 295 298 301 303 302 303 301 299 303 304 306 310 310 309 310 305 303 299 293
217 221 225 231 231 229 234 233 234 234 234 237 235 234 230 225 217 221 223 228 231 241 247 253 281 290 289 291 294 293 294 294 292 290 289 284 284 286 288 291 292 293 295 297 297 300 303 303 306 309 309 307 308 309 311 311 309 307 306 306 302 301 298 295 293 291 291 292 295 297 299 296 297 296 298 303 306 304 308 308 308 308 305 302 303
215 218 219 225 230 229 231 232 235 236 235 235 235 233 230 229 227 226 225 242 250 254 269 273 270 277 278 280 282 284 286 288 288 290 292 293 292 291 292 294 296 296 297 296 297 299 298 300 302 304 304 303 304 306 306 306 306 303 303 300 299 298 296 294 291 290 289 287 291 297 296 297 299 295 297 297 300 304 304 303 302 304 308 311 308
213 215 217 219 226 227 229 231 234 237 235 234 231 225 223 222 220 224 216 229 242 252 252 255 256 257 264 269 270 274 279 282 284 286 290 294 295 295 296 296 297 299 297 299 299 299 298 298 299 299 298 299 301 302 306 304 302 300 298 297 296 294 292 292 291 289 288 289 290 289 294 294 292 297 301 296 291 289 297 306 303 303 306 307 305
215 215 216 219 221 226 227 230 231 234 237 234 232 231 226 221 220 221 208 218 227 236 243 246 252 245 253 255 262 264 268 270 275 279 285 291 294 296 298 302 304 304 304 301 300 297 296 295 295 295 295 295 298 301 301 300 297 296 293 292 292 290 290 290 290 289 288 289 289 294 295 295 295 289 292 297 296 294 290 294 299 305 306 302 296
219 216 217 221 221 222 225 227 227 232 233 233 233 232 228 228 226 221 216 222 228 231 236 239 241 244 242 243 248 250 253 260 263 274 289 293 296 300 302 301 301 300 299 299 297 295 294 294 291 291 293 293 289 284 282 283 288 288 288 287 288 289 288 288 289 289 288 287 289 290 291 292 292 297 298 294 294 296 299 297 290 289 293 296 298
221 219 219 222 220 220 222 222 225 229 229 228 226 224 225 225 225 227 227 230 231 230 228 231 234 240 243 241 240 240 245 248 245 248 262 279 297 300 301 300 300 299 298 296 293 292 291 290 289 287 283 280 278 278 277 274 273 273 279 284 284 285 286 288 287 287 287 287 287 291 289 288 289 292 292 290 291 291 290 291 288 294 295 289 285
222 221 225 224 221 220 219 224 224 226 226 226 226 224 227 225 226 231 233 232 231 226 227 230 232 232 234 239 242 241 240 244 241 255 274 285 293 299 301 301 299 297 295 294 293 294 292 290 290 289 286 282 280 279 279 277 275 274 272 271 272 275 282 283 281 282 284 284 284 284 283 285 287 288 285 291 289 291 287 288 288 292 294 299 296
224 226 230 228 222 221 222 225 225 228 226 226 226 226 226 228 230 232 235 236 232 224 226 232 233 233 231 232 237 238 243 245 251 272 285 292 296 298 300 298 297 295 293 292 292 292 292 291 289 287 283 282 283 283 279 276 274 274 274 272 270 270 267 268 276 280 278 279 279 279 281 281 285 286 287 286 288 288 287 288 287 288 287 286 284
221 228 229 225 223 219 221 224 227 228 226 224 223 220 222 227 233 233 233 233 230 226 230 230 232 231 232 234 235 238 244 244 252 279 288 293 296 297 294 295 293 291 290 290 289 288 288 288 287 282 279 277 275 274 274 275 273 272 272 272 271 269 268 268 266 268 275 277 278 277 275 280 279 279 280 285 289 286 289 285 284 283 281 280 281
218 226 227 223 220 219 222 223 227 229 228 223 218 219 221 224 228 230 231 228 227 233 234 232 232 232 232 238 243 249 259 253 271 286 291 293 295 296 291 290 288 286 286 285 283 283 284 284 285 283 280 279 277 277 278 278 279 279 278 277 278 276 274 271 270 269 268 268 273 274 274 274 276 281 283 286 286 285 286 285 287 284 282 280 286
221 225 225 223 219 222 222 223 226 230 228 222 217 220 221 226 228 227 222 224 225 227 230 232 232 233 234 237 246 255 259 264 272 283 289 292 294 295 289 287 285 284 282 280 278 279 280 279 279 280 280 279 277 276 279 280 282 284 283 283 281 279 278 276 273 271 270 266 265 269 272 276 277 279 282 284 284 284 284 286 287 287 285 286 283
228 224 225 226 223 223 220 221 224 226 227 220 217 221 219 221 224 220 217 222 225 229 234 232 234 228 231 237 250 260 266 261 269 278 288 292 294 292 288 286 284 283 280 278 277 276 277 277 277 277 278 280 281 281 281 285 287 286 285 282 282 280 277 274 273 272 270 270 270 272 274 275 278 279 280 281 282 282 282 281 280 280 283 282 279
229 222 225 229 226 223 217 218 222 223 221 219 220 222 221 222 224 213 212 218 223 220 225 225 222 227 228 234 255 270 275 274 275 279 286 292 294 289 288 286 283 282 279 277 277 276 276 276 280 284 285 284 284 285 286 287 287 285 283 283 283 281 279 278 275 275 274 272 273 273 274 275 276 277 278 279 277 279 282 281 276 279 278 279 279
235 231 230 229 226 222 219 218 227 231 224 224 226 226 227 229 225 199 211 220 222 222 220 219 217 219 235 253 260 274 280 280 276 276 280 286 289 289 287 285 283 281 281 279 278 277 275 274 277 279 279 281 282 285 286 286 285 284 284 284 285 284 282 282 283 281 279 279 278 277 277 277 277 278 278 278 278 277 274 273 276 277 274 274 277
232 229 230 230 232 237 233 227 228 231 231 231 228 230 226 222 209 191 213 217 225 212 210 227 233 239 239 254 258 262 274 275 270 271 276 282 285 286 286 285 284 283 283 283 281 280 283 281 282 283 281 282 283 285 284 285 285 285 287 286 285 283 284 287 287 286 284 284 281 280 278 277 278 276 276 277 277 276 272 271 273 268 268 268 269
233 232 237 243 243 235 226 222 225 226 231 234 229 229 223 203 195 200 197 197 197 204 213 237 252 254 254 253 256 254 266 273 273 273 276 280 282 284 285 284 283 285 284 285 288 287 287 286 283 282 279 280 280 283 284 286 287 286 286 283 282 282 284 285 282 282 281 276 278 275 274 274 268 271 266 268 270 268 266 264 264 263 265 266 266
242 245 248 249 246 239 234 227 229 228 228 233 231 214 205 202 173 172 174 175 189 221 234 247 257 262 258 254 258 259 261 271 274 270 275 280 281 281 280 279 281 284 289 290 287 286 286 284 284 281 281 281 282 283 284 285 286 285 283 281 279 281 284 282 279 277 277 277 275 277 277 274 272 270 269 271 268 265 266 265 263 261 262 263 264
251 252 249 247 246 243 237 234 229 234 229 216 211 187 146 139 142 149 161 181 207 227 241 251 255 260 259 256 255 261 262 255 269 271 272 276 277 277 276 276 280 285 287 285 285 283 282 283 282 282 282 283 283 284 286 286 285 286 283 283 285 287 288 288 289 290 289 286 287 283 281 278 276 272 269 272 271 270 269 268 265 263 260 260 261
249 248 247 246 242 240 241 227 221 217 204 182 186 157 136 138 141 150 167 191 220 237 243 247 255 261 265 263 262 260 263 263 258 266 271 273 274 275 275 277 279 281 281 282 282 284 284 282 282 283 284 286 286 286 287 288 290 289 289 290 290 291 292 292 289 287 284 282 282 281 279 276 275 272 271 268 266 267 266 265 262 262 260 256 255
243 242 238 240 245 243 232 225 206 177 155 156 158 145 148 150 156 171 179 204 227 240 247 251 263 268 271 274 269 264 262 266 268 266 268 270 273 275 279 280 280 279 279 279 281 282 284 283 283 284 285 288 289 291 292 292 291 291 291 291 293 294 292 290 289 285 284 280 279 276 276 275 276 275 274 274 272 272 272 272 272 271 268 267 262
226 234 236 236 232 229 182 176 144 139 142 152 154 157 154 157 174 177 185 215 231 249 260 260 266 271 273 273 275 273 271 269 271 268 268 271 274 279 281 283 283 284 284 281 280 280 282 284 286 288 290 291 292 293 293 291 290 290 291 294 296 293 290 287 284 282 278 277 277 277 276 275 275 276 275 276 275 274 272 270 270 270 272 273 275
233 233 234 230 200 139 134 117 120 128 142 152 151 155 153 165 182 186 197 224 236 251 266 266 269 270 271 275 276 278 278 276 273 274 273 270 272 280 284 286 288 287 286 286 286 287 287 288 288 290 292 292 292 290 291 291 292 292 289 288 292 286 287 289 286 283 280 279 279 278 280 281 280 280 279 279 276 273 271 268 267 265 265 266 267
229 230 217 196 151 156 161 165 155 149 145 137 132 129 138 152 167 204 221 235 242 250 258 260 260 259 263 272 282 285 284 278 276 277 282 292 296 295 292 289 292 295 294 290 290 289 289 290 289 290 291 292 290 288 289 286 285 288 289 292 291 285 286 286 284 285 285 283 283 282 283 282 282 280 274 273 270 269 267 267 266 265 260 258 263
217 217 194 177 177 172 177 157 156 156 156 151 149 143 145 164 196 218 225 237 250 255 254 256 260 271 278 284 291 291 286 282 276 280 290 293 291 293 296 297 298 297 295 292 292 293 292 292 291 292 290 288 289 285 285 290 291 294 289 291 290 287 287 286 282 278 277 278 280 282 282 284 284 284 285 282 278 274 272 271 270 273 271 270 266
211 186 169 169 170 166 163 155 167 145 135 135 121 141 171 187 206 240 234 229 235 244 258 261 261 265 274 280 281 282 286 286 284 289 291 294 298 300 302 300 299 295 295 299 299 295 292 289 289 289 291 294 293 290 289 295 290 290 288 287 287 285 285 281 279 278 278 277 277 279 279 281 281 283 284 281 276 275 272 271 270 268 269 263 261
180 184 174 174 156 153 152 144 126 130 139 152 150 158 183 216 231 230 249 231 238 246 248 255 262 274 276 274 275 277 281 286 292 295 297 301 302 300 298 297 298 298 299 300 299 294 290 291 290 294 296 294 291 291 293 298 291 291 288 289 286 283 281 279 277 278 276 275 277 279 279 280 280 280 277 276 278 283 286 281 270 266 266 267 269
187 171 167 175 163 158 146 142 139 136 130 134 159 214 252 215 229 244 253 260 266 265 266 268 273 275 278 283 283 282 284 287 292 297 301 302 302 302 302 301 300 300 301 302 296 292 294 292 291 292 289 288 287 291 295 296 292 291 290 287 284 284 282 279 276 278 279 278 279 277 277 279 281 282 281 280 278 275 268 267 275 280 273 263 260
180 172 166 146 148 152 137 125 127 137 139 149 183 216 248 281 267 222 232 250 257 264 268 275 277 278 278 278 285 292 294 294 295 297 299 302 304 302 300 300 299 300 301 303 298 293 291 289 287 287 286 286 287 290 289 290 287 287 287 288 286 285 283 281 282 279 279 277 276 274 274 276 277 279 279 280 281 280 278 273 264 261 268 275 275
161 150 144 144 146 140 139 141 152 158 171 182 198 209 230 253 275 295 233 235 253 266 273 275 277 278 281 284 287 287 290 294 297 301 303 302 302 301 299 299 300 302 305 301 291 289 286 286 284 284 285 283 287 287 285 284 284 284 283 285 287 286 283 283 285 281 278 277 276 274 274 273 274 273 273 275 276 276 280 282 279 269 260 262 264
160 161 159 151 144 150 153 158 165 178 182 192 202 205 222 230 257 276 294 303 278 252 244 246 250 273 286 290 291 292 295 299 300 300 299 299 299 299 301 301 300 299 297 289 287 280 284 285 285 284 283 281 282 285 283 282 281 281 283 282 281 283 282 284 282 280 280 278 276 275 274 273 272 272 273 272 271 271 270 268 271 276 282 276 268
117 113 130 147 150 151 161 163 172 176 182 192 196 207 222 230 248 252 267 280 287 285 277 256 257 262 278 292 290 290 295 297 298 299 299 297 298 301 304 303 299 298 290 274 275 278 281 279 280 281 282 282 283 282 281 281 283 283 283 283 283 282 282 281 280 281 279 277 275 275 274 274 274 273 274 273 273 272 273 273 272 266 263 264 270
131 137 142 142 146 154 160 166 167 176 180 193 188 218 233 243 244 257 262 266 267 276 279 268 260 258 267 274 281 288 292 294 295 294 294 295 296 300 297 292 292 288 285 284 276 275 274 273 276 278 279 278 278 280 280 282 281 283 283 282 281 281 279 279 281 278 275 276 275 274 274 271 270 271 270 269 269 268 267 266 263 262 262 265 267
141 144 152 157 157 152 143 146 161 158 155 168 194 216 227 237 252 261 263 264 270 272 278 289 296 291 264 257 264 283 291 295 297 294 292 288 288 288 274 277 279 285 284 281 278 276 276 275 274 276 278 279 278 277 279 281 282 279 279 278 275 274 275 273 268 267 276 276 274 273 271 271 270 268 268 270 270 270 272 273 275 274 272 267 267
136 146 147 137 134 126 139 155 146 142 175 193 207 219 231 250 252 256 262 265 266 277 286 289 289 289 296 296 298 293 302 302 298 290 281 290 293 280 275 272 273 272 276 277 276 275 276 276 275 275 276 275 276 279 280 279 278 280 279 274 271 273 273 271 272 272 267 269 272 267 267 269 267 265 265 265 266 266 265 265 268 270 272 273 276
119 111 123 126 137 151 151 149 154 176 193 193 209 213 242 249 255 257 259 265 268 271 273 279 280 283 283 296 307 307 307 304 310 305 301 297 298 286 273 274 270 272 273 274 277 274 273 276 277 278 277 276 276 276 277 277 277 274 271 274 273 273 272 272 267 263 265 261 265 265 268 267 265 264 263 264 265 265 265 262 260 260 262 265 267
138 143 146 147 147 152 150 162 169 187 199 204 224 224 241 246 251 257 266 268 270 271 275 279 282 280 286 294 298 311 308 299 296 296 299 301 299 287 280 275 276 275 278 281 277 276 278 277 276 276 278 275 273 274 274 274 273 273 274 272 271 270 269 265 263 269 268 261 264 267 262 261 263 263 260 259 261 261 261 262 264 266 270 271 271
137 133 145 163 149 148 164 175 194 203 199 219 235 242 245 251 258 260 266 268 274 275 274 272 272 276 275 275 284 293 290 290 290 289 288 291 294 293 285 279 277 280 280 277 277 279 277 277 276 277 276 275 275 273 274 274 274 274 271 268 268 264 262 265 263 258 256 261 262 258 259 264 260 260 260 259 258 259 259 259 259 259 261 262 263
144 148 158 156 160 177 176 197 200 199 219 229 244 241 249 253 258 263 264 269 271 275 278 276 274 274 272 273 280 289 288 281 280 281 284 285 291 291 291 288 283 279 280 279 280 282 281 278 278 279 278 279 277 275 277 275 273 269 272 271 265 265 263 262 264 259 261 260 252 256 259 258 258 254 257 260 260 258 258 257 258 258 258 259 258
145 157 157 157 169 180 189 194 183 199 228 229 238 244 251 257 260 263 265 264 269 275 279 281 282 282 278 274 280 289 281 278 279 280 282 287 287 287 289 288 289 284 281 281 281 279 279 278 277 277 279 278 275 275 274 276 278 274 271 274 270 262 262 263 259 258 261 257 254 253 256 252 258 256 257 257 256 256 257 258 257 256 257 257 260
151 151 154 162 168 162 180 190 212 228 228 240 253 255 254 255 258 261 261 266 268 269 272 276 281 286 289 287 280 275 278 289 293 289 289 287 286 289 291 292 290 287 283 281 280 280 280 279 279 280 278 276 277 272 272 269 267 275 280 277 274 269 265 259 260 257 256 255 254 253 253 254 251 255 254 254 256 257 256 255 256 254 253 254 254
146 155 158 162 170 176 196 196 218 231 244 249 247 244 242 246 256 259 263 268 270 270 272 274 277 281 285 286 284 281 280 278 288 290 285 287 286 289 293 291 288 287 287 284 282 280 280 278 278 278 281 281 281 280 276 273 273 277 270 270 278 274 270 264 257 262 262 255 252 256 255 253 255 251 255 253 253 255 256 257 257 258 257 256 260
152 150 156 166 175 202 208 223 211 228 231 237 245 251 250 250 252 254 260 266 268 272 276 277 275 276 277 281 285 281 282 281 289 293 293 293 293 295 293 290 288 288 287 286 285 282 279 280 281 280 279 281 280 282 280 278 274 268 275 277 275 275 267 261 265 262 255 248 256 250 256 251 254 250 252 249 252 251 253 255 254 254 254 256 257
139 157 164 180 194 210 216 223 222 229 235 239 243 244 255 252 256 260 259 262 266 271 273 274 276 276 278 278 282 283 284 284 295 298 289 282 285 288 291 287 286 287 288 289 288 285 284 281 281 282 281 277 271 275 277 264 260 277 281 278 274 263 265 266 270 263 261 262 256 253 251 248 253 248 252 250 250 251 253 252 253 253 253 253 254
163 170 184 184 192 214 222 213 232 237 246 239 242 248 256 260 262 260 264 267 263 264 265 269 269 273 277 278 278 280 285 285 292 295 295 296 293 286 287 293 289 285 287 288 287 286 282 280 279 279 280 281 280 279 282 284 280 281 283 274 274 270 276 280 269 268 266 265 257 247 239 241 244 248 245 247 246 248 249 249 249 250 252 256 256
172 181 186 194 203 214 220 226 228 235 239 246 256 256 252 257 260 264 265 265 265 267 267 271 275 278 278 278 281 282 284 288 287 290 298 296 292 294 293 290 285 285 285 286 288 287 285 284 283 282 281 281 278 274 273 284 286 276 276 280 277 282 278 279 285 281 276 266 250 241 235 236 238 237 238 241 243 243 246 246 246 248 248 249 253
183 189 197 204 215 229 228 236 239 247 252 255 251 259 257 259 260 261 263 265 268 267 268 270 275 278 283 285 286 284 288 292 296 296 296 298 296 293 291 289 289 288 288 288 290 289 287 284 283 281 281 283 284 282 281 276 284 285 278 281 289 291 294 296 295 294 291 285 273 241 229 229 233 234 236 235 239 239 240 239 242 242 245 246 247
189 191 207 211 224 232 231 239 244 235 240 245 246 250 256 257 259 261 263 263 263 267 269 274 277 279 279 279 281 287 288 288 290 293 293 292 292 291 289 291 290 291 290 289 288 289 288 288 286 285 283 281 281 281 279 279 283 286 290 290 295 302 301 298 293 289 284 280 274 270 243 225 225 229 231 232 232 235 231 236 234 237 240 244 244